FW5428 Weather Reports


Display with metric or nautical units.
time (UTC)temp
F
wind
direction
speed
MPH
gust
MPH
rain 1hr
in
rain 24hr
in
rain mn
in
humidity
%
barometer
mb
20260904181541 62 225 6.0 15.0 0.00 0.00 0.00 58 1015.5
20260904181030 62 225 8.0 17.0 0.00 0.00 0.00 57 1015.7
20260904180520 62 225 11.0 17.0 0.00 0.00 0.00 59 1015.7
20260904180012 62 225 11.0 17.0 0.00 0.00 0.00 56 1015.7
20260904175500 62 180 9.0 17.0 0.00 0.00 0.00 58 1015.5
20260904174950 62 180 11.0 17.0 0.00 0.00 0.00 60 1015.5
20260904173929 61 135 9.0 16.0 0.00 0.00 0.00 59 1015.7
20260904173419 61 180 4.0 9.0 0.00 0.00 0.00 64 1015.9
20260904172910 60 180 2.0 9.0 0.00 0.00 0.00 63 1015.9
20260904172400 60 180 5.0 9.0 0.00 0.00 0.00 63 1016.0
20260904171849 60 180 4.0 9.0 0.00 0.00 0.00 62 1016.0
20260904171343 60 180 4.0 8.0 0.00 0.00 0.00 64 1016.4
20260904170829 60 180 6.0 8.0 0.00 0.00 0.00 63 1016.4
20260904170318 60 180 3.0 9.0 0.00 0.00 0.00 64 1016.4
20260904165809 60 135 5.0 9.0 0.00 0.00 0.00 66 1016.5
20260904165259 60 90 4.0 11.0 0.00 0.00 0.00 66 1016.8
20260904164748 61 135 7.0 11.0 0.00 0.00 0.00 66 1016.8
20260904164239 60 90 5.0 8.0 0.00 0.00 0.00 66 1016.6
20260904163728 60 180 2.0 10.0 0.00 0.00 0.00 64 1016.8
20260904163218 59 180 4.0 10.0 0.00 0.00 0.00 65 1016.9
20260904161648 59 90 3.0 7.0 0.00 0.00 0.00 72 1017.1
20260904161138 59 90 3.0 8.0 0.00 0.00 0.00 71 1017.4
20260904160628 59 90 5.0 8.0 0.00 0.00 0.00 73 1017.4
20260904160118 59 180 4.0 7.0 0.00 0.00 0.00 72 1017.4
20260904155608 59 135 3.0 7.0 0.00 0.00 0.00 72 1017.4
20260904155057 59 180 5.0 7.0 0.00 0.00 0.00 72 1017.5
20260904154547 59 90 4.0 7.0 0.00 0.00 0.00 72 1017.6
20260904154037 59 180 3.0 8.0 0.00 0.00 0.00 72 1017.8
20260904153527 58 135 4.0 8.0 0.00 0.00 0.00 70 1017.9
20260904153018 58 180 4.0 8.0 0.00 0.00 0.00 70 1017.8
20260904152506 58 135 5.0 8.0 0.00 0.00 0.00 73 1017.6
20260904151957 58 180 4.0 8.0 0.00 0.00 0.00 73 1018.2
20260904151446 58 90 4.0 8.0 0.00 0.00 0.00 72 1018.0
20260904150937 58 180 4.0 5.0 0.00 0.00 0.00 71 1018.1
20260904150428 58 180 2.0 4.0 0.00 0.00 0.00 73 1018.2
20260904145916 57 135 2.0 4.0 0.00 0.00 0.00 73 1018.1
20260904145406 56 180 2.0 5.0 0.00 0.00 0.00 75 1018.3
20260904144856 56 180 3.0 5.0 0.00 0.00 0.00 76 1018.4
20260904144346 56 180 3.0 5.0 0.00 0.00 0.00 81 1018.5
20260904143326 55 180 4.0 5.0 0.00 0.00 0.00 83 1018.5
20260904142815 55 180 3.0 6.0 0.00 0.00 0.00 83 1018.4
20260904142306 55 180 4.0 6.0 0.00 0.00 0.00 84 1018.6
20260904141756 55 180 4.0 6.0 0.00 0.00 0.00 83 1018.3
20260904141245 55 180 5.0 7.0 0.00 0.00 0.00 83 1018.2
20260904140735 55 180 4.0 7.0 0.00 0.00 0.00 84 1018.2
20260904140225 55 180 5.0 7.0 0.00 0.00 0.00 84 1018.3
20260904135205 54 135 3.0 5.0 0.00 0.00 0.00 85 1018.3
20260904112212 47 270 2.0 0.0 0.00 0.00 0.00 86 1017.6
20260904111840 46 270 2.0 4.0 0.00 0.00 0.00 86 1017.8
20260904111330 46 270 2.0 4.0 0.00 0.00 0.00 86 1017.7
20260904110820 45 0 2.0 4.0 0.00 0.00 0.00 87 1017.3
20260904110310 44 270 2.0 5.0 0.00 0.00 0.00 88 1017.6
20260904104740 43 270 4.0 9.0 0.00 0.00 0.00 89 1017.4
20260904104229 42 0 4.0 9.0 0.00 0.00 0.00 90 1017.5
20260904103209 42 0 3.0 8.0 0.00 0.00 0.00 90 1017.2
20260904102148 43 0 3.0 6.0 0.00 0.00 0.00 90 1017.2
20260904101129 44 0 3.0 6.0 0.00 0.00 0.00 90 1017.0
20260904100618 45 0 3.0 4.0 0.00 0.00 0.00 90 1017.0
20260904100108 46 0 2.0 4.0 0.00 0.00 0.00 90 1016.8
20260904095558 47 0 2.0 5.0 0.00 0.00 0.00 90 1016.8
20260904095048 48 0 2.0 5.0 0.00 0.00 0.00 90 1016.7
20260904094536 49 270 3.0 6.0 0.00 0.00 0.00 89 1016.6
20260904094027 49 0 4.0 8.0 0.00 0.00 0.00 89 1016.5
20260904093517 50 270 2.0 9.0 0.00 0.00 0.00 89 1016.5
20260904093012 50 225 4.0 9.0 0.00 0.00 0.00 89 1016.4
20260904091947 50 270 6.0 9.0 0.00 0.00 0.00 88 1016.3
20260904091437 50 225 6.0 13.0 0.00 0.00 0.00 88 1016.2
20260904090927 50 180 9.0 14.0 0.00 0.00 0.00 87 1016.2
20260904085907 50 180 8.0 13.0 0.00 0.00 0.00 86 1016.0
20260904085357 50 180 9.0 13.0 0.00 0.00 0.00 86 1016.2
20260904084847 49 180 8.0 13.0 0.00 0.00 0.00 86 1016.1
20260904084337 49 225 8.0 14.0 0.00 0.00 0.00 87 1016.1
20260904083827 49 225 8.0 15.0 0.00 0.00 0.00 86 1015.9
20260904083316 49 225 11.0 15.0 0.00 0.00 0.00 85 1016.0
20260904082807 49 225 10.0 15.0 0.00 0.00 0.00 85 1016.1
20260904082256 49 225 11.0 14.0 0.00 0.00 0.00 85 1015.9
20260904081236 48 270 8.0 11.0 0.00 0.00 0.00 85 1016.1
20260904080215 48 270 5.0 11.0 0.00 0.00 0.00 85 1015.8
20260904075705 49 225 8.0 11.0 0.00 0.00 0.00 85 1016.0
20260904075155 48 270 9.0 13.0 0.00 0.00 0.00 85 1016.0
20260904074645 48 225 11.0 13.0 0.00 0.00 0.00 83 1016.0
20260904074136 47 225 8.0 11.0 0.00 0.00 0.00 84 1016.1
20260904073115 47 270 4.0 6.0 0.00 0.00 0.00 85 1016.0
20260904072605 46 270 4.0 5.0 0.00 0.00 0.00 85 1016.1
20260904072055 46 270 2.0 7.0 0.00 0.00 0.00 84 1016.2
20260904071545 46 270 2.0 7.0 0.00 0.00 0.00 84 1015.8
20260904071034 46 270 3.0 7.0 0.00 0.00 0.00 84 1015.9
20260904070014 46 270 4.0 7.0 0.00 0.00 0.00 84 1016.1
20260904065504 46 315 3.0 6.0 0.00 0.00 0.00 83 1016.0
20260904064954 47 270 4.0 6.0 0.00 0.00 0.00 84 1016.0
20260904064444 47 270 2.0 5.0 0.00 0.00 0.00 83 1016.1
20260904063424 47 270 3.0 7.0 0.00 0.00 0.00 81 1016.2
20260904062913 48 270 4.0 7.0 0.00 0.00 0.00 81 1016.1
20260904062403 48 270 4.0 8.0 0.00 0.00 0.00 82 1016.3
20260904061853 49 270 4.0 10.0 0.00 0.00 0.00 81 1016.2
20260904060834 49 270 4.0 11.0 0.00 0.00 0.00 80 1016.1
20260904060323 48 270 6.0 0.0 0.00 0.00 0.00 80 1016.1
20260904055412 48 270 5.0 11.0 0.00 0.00 0.00 80 1016.2
20260904054902 49 270 6.0 8.0 0.00 0.00 0.00 81 1015.9
20260904053841 49 315 4.0 9.0 0.00 0.00 0.00 79 1016.0
20260904052821 49 270 6.0 11.0 0.00 0.00 0.00 78 1015.6
20260904052311 49 270 4.0 11.0 0.00 0.00 0.00 79 1015.9
20260904051801 49 270 5.0 11.0 0.00 0.00 0.00 79 1015.9
20260904051304 49 270 8.0 11.0 0.00 0.00 0.00 79 1016.0
20260904050741 49 315 7.0 11.0 0.00 0.00 0.00 79 1016.0
20260904044701 49 315 5.0 9.0 0.00 0.00 0.00 79 1016.0
20260904044151 49 270 4.0 10.0 0.00 0.00 0.00 79 1015.8
20260904043640 49 0 5.0 10.0 0.00 0.00 0.00 79 1016.0
20260904043130 49 270 5.0 9.0 0.00 0.00 0.00 79 1016.0
20260904041600 49 0 4.0 10.0 0.00 0.00 0.00 79 1015.7
20260904041050 49 270 3.0 11.0 0.00 0.00 0.00 79 1015.8
20260904040029 49 270 4.0 10.0 0.00 0.00 0.00 79 1015.8
20260904035519 50 0 5.0 11.0 0.00 0.00 0.00 79 1015.7
20260904035010 50 225 4.0 11.0 0.00 0.00 0.00 79 1015.7
20260904033949 51 315 4.0 12.0 0.00 0.00 0.00 78 1015.5
20260904033439 50 270 4.0 10.0 0.00 0.00 0.00 77 1015.7
20260904032929 50 270 6.0 11.0 0.00 0.00 0.00 75 1015.4
20260904032418 49 270 6.0 11.0 0.00 0.00 0.00 78 1015.7
20260904031909 49 0 7.0 11.0 0.00 0.00 0.00 80 1015.7
20260904031359 50 315 4.0 10.0 0.00 0.00 0.00 80 1015.6
20260904030338 51 315 3.0 8.0 0.00 0.00 0.00 76 1015.6
20260904025828 51 270 4.0 8.0 0.00 0.00 0.00 75 1015.6
20260904025319 51 270 4.0 8.0 0.00 0.00 0.00 75 1015.5
20260904024808 51 270 3.0 8.0 0.00 0.00 0.00 76 1015.7
20260904024258 52 270 4.0 8.0 0.00 0.00 0.00 75 1015.3
20260904023748 52 270 5.0 8.0 0.00 0.00 0.00 74 1015.3
20260904023238 52 270 2.0 8.0 0.00 0.00 0.00 75 1015.2
20260904022728 52 270 4.0 8.0 0.00 0.00 0.00 77 1015.1
20260904022227 52 270 6.0 8.0 0.00 0.00 0.00 77 1015.1
20260904021157 52 270 6.0 9.0 0.00 0.00 0.00 75 1015.3
20260904020647 52 270 4.0 8.0 0.00 0.00 0.00 75 1015.2
20260904020137 52 270 4.0 8.0 0.00 0.00 0.00 76 1015.1
20260904015627 52 270 2.0 8.0 0.00 0.00 0.00 75 1015.2
20260904015117 53 270 4.0 7.0 0.00 0.00 0.00 75 1015.2
20260904014056 53 270 4.0 8.0 0.00 0.00 0.00 74 1014.9
20260904013546 53 270 4.0 8.0 0.00 0.00 0.00 74 1014.9
20260904013036 53 270 4.0 6.0 0.00 0.00 0.00 73 1014.7
20260904012527 53 270 4.0 8.0 0.00 0.00 0.00 73 1014.9
20260904011506 54 270 3.0 8.0 0.00 0.00 0.00 73 1014.7
20260904010956 54 270 2.0 8.0 0.00 0.00 0.00 72 1014.4
20260904010446 55 315 4.0 10.0 0.00 0.00 0.00 71 1014.6
20260904005426 55 270 4.0 11.0 0.00 0.00 0.00 69 1014.7
20260904004915 55 270 6.0 11.0 0.00 0.00 0.00 69 1014.5
20260904003856 55 270 4.0 11.0 0.00 0.00 0.00 69 1014.4
20260904003345 55 270 8.0 11.0 0.00 0.00 0.00 68 1014.3
20260904002325 55 270 5.0 8.0 0.00 0.00 0.00 68 1014.2
20260904001815 55 270 5.0 8.0 0.00 0.00 0.00 69 1014.1
20260904001304 55 270 4.0 8.0 0.00 0.00 0.00 68 1014.0
20260904000754 56 270 4.0 8.0 0.00 0.00 0.00 68 1014.0
20260904000244 56 270 3.0 8.0 0.00 0.00 0.00 68 1014.1
20260903235734 56 270 4.0 9.0 0.00 0.00 0.00 67 1013.7
20260903235224 56 270 5.0 9.0 0.00 0.00 0.00 67 1013.9
20260903234714 56 270 3.0 11.0 0.00 0.00 0.00 67 1013.5
20260903234204 56 315 4.0 11.0 0.00 0.00 0.00 67 1013.5
20260903233654 56 315 4.0 11.0 0.00 0.00 0.00 67 1013.6
20260903233150 56 270 4.0 11.0 0.00 0.00 0.00 67 1013.5
20260903232633 56 0 3.0 10.0 0.00 0.00 0.00 68 1013.4
20260903232124 57 270 2.0 10.0 0.00 0.00 0.00 68 1013.1
20260903231613 57 270 3.0 9.0 0.00 0.00 0.00 67 1013.1
20260903231103 57 270 3.0 9.0 0.00 0.00 0.00 67 1013.2
20260903230553 57 315 5.0 9.0 0.00 0.00 0.00 67 1013.2
20260903230043 57 270 4.0 9.0 0.00 0.00 0.00 67 1013.1
20260903225533 57 0 6.0 9.0 0.00 0.00 0.00 66 1012.9
20260903225023 58 0 4.0 7.0 0.00 0.00 0.00 66 1012.8
20260903224513 58 270 3.0 7.0 0.00 0.00 0.00 66 1012.8
20260903224002 59 0 4.0 7.0 0.00 0.00 0.00 65 1012.8
20260903223453 59 270 2.0 8.0 0.00 0.00 0.00 64 1012.7
20260903222942 59 270 5.0 8.0 0.00 0.00 0.00 62 1012.6
20260903221923 60 270 5.0 10.0 0.00 0.00 0.00 61 1012.6
20260903221412 60 270 6.0 10.0 0.00 0.00 0.00 60 1012.6
20260903220902 60 270 6.0 11.0 0.00 0.00 0.00 60 1012.6
20260903220351 61 270 5.0 11.0 0.00 0.00 0.00 60 1012.7
20260903215842 61 270 6.0 14.0 0.00 0.00 0.00 61 1012.6
20260903215332 62 270 8.0 19.0 0.00 0.00 0.00 62 1012.6
20260903214821 62 270 9.0 20.0 0.00 0.00 0.00 62 1012.7
20260903214311 62 270 11.0 20.0 0.00 0.00 0.00 62 1012.6
20260903213801 62 270 15.0 19.0 0.00 0.00 0.00 64 1012.6
20260903213251 62 270 12.0 16.0 0.00 0.00 0.00 64 1012.6
20260903211721 63 270 8.0 15.0 0.00 0.00 0.00 61 1012.2
20260903211211 63 180 7.0 15.0 0.00 0.00 0.00 59 1012.1
20260903210701 63 270 9.0 18.0 0.00 0.00 0.00 58 1011.9
20260903210151 64 270 11.0 21.0 0.00 0.00 0.00 60 1012.1
20260903205641 64 270 13.0 22.0 0.00 0.00 0.00 58 1012.2
20260903205130 64 270 15.0 22.0 0.00 0.00 0.00 56 1012.0
20260903204620 64 270 15.0 20.0 0.00 0.00 0.00 55 1011.8
20260903204113 64 270 10.0 21.0 0.00 0.00 0.00 57 1011.7
20260903202539 64 270 11.0 24.0 0.00 0.00 0.00 57 1011.7
20260903201521 64 225 20.0 25.0 0.00 0.00 0.00 56 1011.7
20260903201009 64 270 12.0 23.0 0.00 0.00 0.00 56 1011.5
20260903200459 65 225 17.0 23.0 0.00 0.00 0.00 53 1011.7
20260903195949 65 225 13.0 26.0 0.00 0.00 0.00 54 1011.7
20260903195439 65 270 15.0 27.0 0.00 0.00 0.00 54 1011.6
20260903194929 65 270 20.0 27.0 0.00 0.00 0.00 51 1011.7
20260903194419 65 270 22.0 27.0 0.00 0.00 0.00 53 1011.7
20260903193908 65 270 15.0 30.0 0.00 0.00 0.00 52 1011.6
20260903192338 66 270 23.0 33.0 0.00 0.00 0.00 53 1012.0
20260903191828 66 270 17.0 29.0 0.00 0.00 0.00 55 1011.7
20260903191318 65 270 14.0 29.0 0.00 0.00 0.00 57 1011.7
20260903190808 65 270 15.0 27.0 0.00 0.00 0.00 58 1011.6
20260903190258 65 270 11.0 24.0 0.00 0.00 0.00 60 1011.7
20260903185748 65 270 13.0 24.0 0.00 0.00 0.00 61 1011.8
20260903185238 65 270 15.0 27.0 0.00 0.00 0.00 60 1011.6
20260903184728 65 270 17.0 27.0 0.00 0.00 0.00 59 1011.7
20260903183157 66 270 14.0 28.0 0.00 0.00 0.00 53 1011.3
20260903182647 66 270 15.0 28.0 0.00 0.00 0.00 56 1011.3
20260903182137 66 270 17.0 27.0 0.00 0.00 0.00 56 1011.6